Orbital elements of ISS
| Launched | 19 November 1998 |
| Flight ended | – |
| Launch site | Tyuratam Missile and Space Center, Kazakhstan (Also known as Baikonur Cosmodrome) |
| Owner | International Space Station |
| NORAD ID | 25544 |
| Alternative names |
ZARYA INTERNATIONAL SPACE STATION |
| Date fetched |
Epoch osculation |
Inc. [°] |
Ecc. | RA asc node [hr] |
Arg Peri. [°] |
Mean anom [°] |
Mean motion [rev/day] |
Abs. mag |
| Date fetched |
Epoch osculation |
Inc. [°] |
Ecc. | RA asc node [hr] |
Arg Peri. [°] |
Mean anom [°] |
Mean motion [rev/day] |
Abs. mag |
| 2026 May 08 17:57 | 2026 May 08 04:47:05 | 51.6308 | 0.00075 | 9.2028 | 35.9089 | 324.2400 | 15.49139 | -1.257 |
| 2026 May 07 17:58 | 2026 May 07 04:00:47 | 51.6305 | 0.00074 | 9.5433 | 32.2307 | 324.2400 | 15.49139 | -1.257 |
| 2026 May 06 17:57 | 2026 May 06 12:31:50 | 51.6304 | 0.00074 | 9.7561 | 29.8733 | 324.2400 | 15.49139 | -1.257 |
| 2026 May 05 17:57 | 2026 May 05 11:45:31 | 51.6304 | 0.00074 | 10.0966 | 26.0888 | 324.2400 | 15.49139 | -1.257 |
| 2026 May 04 17:57 | 2026 May 04 10:59:11 | 51.6305 | 0.00073 | 10.4371 | 22.3552 | 324.2400 | 15.49139 | -1.257 |
| 2026 May 03 17:57 | 2026 May 03 11:45:44 | 51.6306 | 0.00073 | 10.7564 | 18.9257 | 324.2400 | 15.49139 | -1.257 |
| 2026 May 02 17:57 | 2026 May 02 09:26:28 | 51.6309 | 0.00072 | 11.1182 | 14.7888 | 324.2400 | 15.49139 | -1.257 |
| 2026 May 01 17:56 | 2026 May 01 11:45:53 | 51.6312 | 0.00072 | 11.4161 | 11.5197 | 324.2400 | 15.49139 | -1.257 |
| 2026 Apr 30 17:56 | 2026 Apr 30 04:47:54 | 51.6316 | 0.00071 | 11.8417 | 6.6336 | 324.2400 | 15.49139 | -1.257 |
| 2026 Apr 29 17:57 | 2026 Apr 29 11:45:59 | 51.6319 | 0.00071 | 12.0758 | 4.2135 | 324.2400 | 15.49139 | -1.257 |
| 2026 Apr 28 17:56 | 2026 Apr 28 12:32:28 | 51.6321 | 0.00071 | 12.3950 | 0.6055 | 324.2400 | 15.49139 | -1.257 |
| 2026 Apr 27 17:58 | 2026 Apr 27 08:40:14 | 51.6320 | 0.00070 | 12.7780 | 356.2195 | 324.2400 | 15.49139 | -1.257 |
| 2026 Apr 26 17:58 | 2026 Apr 25 14:51:50 | 51.6320 | 0.00069 | 13.3525 | 349.7097 | 324.2400 | 15.49139 | -1.257 |
| 2026 Apr 25 17:58 | 2026 Apr 25 11:46:01 | 51.6320 | 0.00069 | 13.3950 | 349.3226 | 324.2400 | 15.49139 | -1.257 |
| 2026 Apr 24 17:59 | 2026 Apr 23 14:51:45 | 51.6319 | 0.00068 | 14.0121 | 342.1779 | 324.2400 | 15.49139 | -1.257 |
| 2026 Apr 23 17:57 | 2026 Apr 23 04:01:24 | 51.6318 | 0.00068 | 14.1610 | 340.3365 | 324.2400 | 15.49139 | -1.257 |
| 2026 Apr 22 17:57 | 2026 Apr 22 04:47:46 | 51.6321 | 0.00067 | 14.4802 | 336.5555 | 324.2400 | 15.49139 | -1.257 |
| 2026 Apr 21 17:57 | 2026 Apr 21 11:45:46 | 51.6324 | 0.00067 | 14.7142 | 333.7588 | 324.2400 | 15.49139 | -1.257 |
| 2026 Apr 20 17:57 | 2026 Apr 20 12:32:07 | 51.6326 | 0.00067 | 15.0334 | 329.7855 | 324.2400 | 15.49139 | -1.257 |
| 2026 Apr 19 17:58 | 2026 Apr 19 11:45:32 | 51.6329 | 0.00066 | 15.3738 | 325.6576 | 324.2400 | 15.49139 | -1.257 |
| 2026 Apr 18 17:56 | 2026 Apr 18 01:41:27 | 51.6329 | 0.00066 | 15.8418 | 320.1418 | 324.2400 | 15.49139 | -1.257 |
| 2026 Apr 16 17:57 | 2026 Apr 15 21:02:24 | 51.6326 | 0.00066 | 16.5652 | 317.1782 | 324.2400 | 15.49139 | -1.257 |
| 2026 Apr 14 17:57 | 2026 Apr 14 12:31:22 | 51.6319 | 0.00065 | 17.0121 | 311.8952 | 324.2400 | 15.49139 | -1.257 |
| 2026 Apr 13 17:57 | 2026 Apr 13 04:00:18 | 51.6321 | 0.00065 | 17.4590 | 306.5385 | 324.2400 | 15.49139 | -1.257 |
| 2026 Apr 12 17:57 | 2026 Apr 12 12:31:13 | 51.6322 | 0.00065 | 17.6717 | 304.0419 | 324.2400 | 15.49139 | -1.257 |
| 2026 Apr 11 17:57 | 2026 Apr 11 11:44:40 | 51.6326 | 0.00064 | 18.0121 | 299.5706 | 324.2400 | 15.49139 | -1.257 |